Погода в Медведе

Россия / Новгородская область     58°18′06″N   30°30′46″E
темп.,
°C
ветер,
м/с
пор.,
м/с
влажн.,
%
обл.,
%
осадки,
мм/ч
давл.,
гПа
погр.,
м
1 июля, пт
пт100:00+16св22582 0.0 102112
03:00+15св11575 0.0 102111
06:00+16сз11645 0.0 102114
09:00+23ссв12445 0.0 1021346
12:00+28ссз23357 0.0 10211098
15:00+30ссв343217 0.0 10202214
18:00+29всв2341100 0.0 10192008
21:00+23вюв126570 0.0 102012
2 июля, сб
сб200:00+18юв3106767 0.0 1021203
03:00+15ююв2572100 0.0 102296
06:00+16ююв267822 0.0 1022170
09:00+22ю346022 0.0 1022406
12:00+27ююв334581 0.0 10221024
15:00+29ююз2237100 0.0 10211754
18:00+28ююз2347100 0.0 1020753
21:00+23ююз226796 0.0 101935
3 июля, вс
вс300:00+20юз226998 0.0 101917
03:00+19юз2271100 0.0 101927
06:00+19юз23788 0.0 101969
09:00+25зюз2361100 0.0 1018395
12:00+29юз234596 0.0 10171479
15:00+31ююз333573 0.0 10172762
18:00+24с346340 0.0 1016130
21:00+22сз2680100 0.4 1017155
4 июля, пн
пн400:00+19с269597 0.6 1017128
03:00+18ссз2399100 1.8 101869
06:00+18с1297100 0.6 101777
09:00+22ю018223 0.6 1017403
12:00+27юз245614 0.0 10161397
15:00+27зюз245812 1.7 10151338
18:00+27зюз2453100 0.3 10141136
21:00+21зюз228339 0.9 101446
5 июля, вт
вт500:00+18юз1195100 2.3 101415
03:00+17зюз2296100 2.3 101446
06:00+17зюз2293100 0.0 101462
09:00+23з35670 0.0 1014536
12:00+27зюз57430 0.0 10132071
15:00+27зюз683482 0.0 10132832
18:00+25зюз48384 0.0 10132617
21:00+20зсз4105897 0.0 1013557